Location: Ottawa
(45.4170°N, 75.7000°W)
Time: 12:08:01
(UTC-04:00)

Amateur Radio Satellites - All Passes

Search period start: 21 September 2014 11:38
Search period end: 22 September 2014 11:38
Location: Ottawa, 45.4170°N, 75.7000°W

Satellite Date Start Highest point End Downlink Frequencies (MHz)
Time Altitude Azimuth
HO-68 21 Sep 11:51:39 11:57:41 31° 302° (WNW) 12:03:43 435.675 MHz FM
Oscar 19 21 Sep 12:16:19 12:19:37 17° 59° (ENE) 12:22:55 437.125 CW, 437.150 USB
Sapphire 21 Sep 12:21:58 12:27:19 68° 118° (ESE) 12:32:43 437.095 MHz 1200 baud AX-25 AFSK
FUNcube-1 21 Sep 12:32:21 12:36:14 27° 294° (WNW) 12:40:04 145.950 - 145.970 MHz USB
Oscar 11 21 Sep 12:39:47 12:40:49 11° 302° (WNW) 12:41:51 145.825 FM, Beacon 2401.500 USB
AO-27 21 Sep 12:40:14 12:42:32 13° 55° (NE) 12:44:51 436.795 MHz FM
PCSat 21 Sep 12:48:46 12:54:10 73° 304° (NW) 12:59:37 145.825 MHz
AO-Echo 21 Sep 12:53:37 12:56:28 16° 60° (ENE) 12:59:19 ?
Oscar 16 21 Sep 12:53:43 12:58:24 35° 66° (ENE) 13:03:06 437.025 USB, Beacon 2401.1428
JAS-1B 21 Sep 12:56:48 13:03:40 32° 63° (ENE) 13:09:36 435.800 - 435.900 CW/SSB
ITAMSAT 1 21 Sep 13:40:59 13:45:46 40° 67° (ENE) 13:50:35 435.822 SSB
Gurwin Techsat 1B 21 Sep 13:41:37 13:45:35 22° 61° (ENE) 13:49:33 435.225 FM
Uribyol 2 21 Sep 13:44:32 13:49:26 45° 69° (ENE) 13:54:23 436.500 FM
RS-15 21 Sep 13:48:55 13:59:55 72° 241° (WSW) 14:11:23 29.354 - 29.394 USB, Beacon 29.352 USB
Oscar 19 21 Sep 13:53:10 13:58:21 75° 257° (WSW) 14:03:35 437.125 CW, 437.150 USB
Sapphire 21 Sep 14:06:49 14:11:14 25° 319° (NW) 14:15:41 437.095 MHz 1200 baud AX-25 AFSK
AO-27 21 Sep 14:16:04 14:21:14 82° 74° (ENE) 14:26:27 436.795 MHz FM
TMSAT-1 21 Sep 14:16:34 14:21:10 31° 65° (ENE) 14:25:48 436.925 FM
AO-Echo 21 Sep 14:30:03 14:34:45 67° 258° (WSW) 14:39:27 ?
AO-7 21 Sep 14:32:56 14:39:22 26° 50° (NE) 14:45:47 29.400 - 29.500 MHz
Oscar 16 21 Sep 14:33:06 14:37:45 33° 264° (W) 14:42:26 437.025 USB, Beacon 2401.1428
PCSat 21 Sep 14:35:02 14:38:34 17° 325° (NW) 14:42:07 145.825 MHz
JAS-1B 21 Sep 14:45:42 14:54:01 60° 258° (WSW) 15:00:59 435.800 - 435.900 CW/SSB
Gurwin Techsat 1B 21 Sep 15:19:55 15:25:08 59° 259° (W) 15:30:24 435.225 FM
ITAMSAT 1 21 Sep 15:20:56 15:25:22 28° 265° (W) 15:29:50 435.822 SSB
Uribyol 2 21 Sep 15:24:54 15:29:07 25° 266° (W) 15:33:22 436.500 FM
Uosat F 21 Sep 15:42:03 15:46:31 34° 66° (ENE) 15:51:00 435.120 FM
TMSAT-1 21 Sep 15:56:05 16:00:59 38° 263° (W) 16:05:56 436.925 FM
AO-27 21 Sep 15:58:52 16:01:24 14° 272° (W) 16:03:56 436.795 MHz FM
RS-15 21 Sep 16:03:46 16:10:15 18° 263° (W) 16:16:53 29.354 - 29.394 USB, Beacon 29.352 USB
MaSat-1 21 Sep 16:20:46 16:23:11 15° 43° (NE) 16:25:25 437.345 MHz
AO-7 21 Sep 16:22:55 16:31:15 86° 251° (WSW) 16:39:36 29.400 - 29.500 MHz
JAS-1B 21 Sep 16:44:33 16:45:39 10° 275° (W) 16:46:43 435.800 - 435.900 CW/SSB
JAS-2 21 Sep 16:48:56 16:52:54 23° 61° (ENE) 16:56:55 435.800 - 435.900 CW/SSB, 435.910 FM
OPAL 21 Sep 16:49:16 16:52:33 17° 92° (E) 16:55:46 ?
Saudisat 1A 21 Sep 16:54:39 16:58:49 44° 119° (ESE) 17:03:01 436.775 MHz
Hamsat 21 Sep 17:06:25 17:09:51 23° 66° (ENE) 17:13:17 145.90 MHz
Uosat F 21 Sep 17:20:50 17:25:17 32° 264° (W) 17:29:47 435.120 FM
MaSat-1 21 Sep 17:56:37 18:00:23 55° 247° (WSW) 18:03:36 437.345 MHz
AO-7 21 Sep 18:19:39 18:25:10 19° 271° (W) 18:30:42 29.400 - 29.500 MHz
OPAL 21 Sep 18:26:46 18:31:56 68° 290° (WNW) 18:36:59 ?
JAS-2 21 Sep 18:32:41 18:37:44 49° 261° (W) 18:42:48 435.800 - 435.900 CW/SSB, 435.910 FM
Saudisat 1A 21 Sep 18:34:44 18:38:33 28° 318° (NW) 18:42:23 436.775 MHz
Hamsat 21 Sep 18:41:33 18:45:36 38° 263° (W) 18:49:41 145.90 MHz
SO-67 21 Sep 18:43:34 18:46:36 30° 71° (ENE) 18:49:40 435.3500 MHz FM
HO-68 21 Sep 18:51:14 18:54:30 14° 46° (NE) 18:57:47 435.675 MHz FM
STRAND 1 21 Sep 19:11:23 19:15:48 28° 95° (E) 19:20:13 ?
KITSAT 1 21 Sep 19:13:16 19:21:04 56° 115° (ESE) 19:28:55 435.175 FM
Sapphire 21 Sep 19:25:11 19:29:04 19° 37° (NE) 19:32:55 437.095 MHz 1200 baud AX-25 AFSK
PCSat 21 Sep 19:51:39 19:56:19 28° 44° (NE) 20:00:58 145.825 MHz
OPAL 21 Sep 20:08:12 20:09:51 12° 309° (NW) 20:11:30 ?
SO-67 21 Sep 20:17:19 20:19:42 18° 267° (W) 20:22:06 435.3500 MHz FM
Oscar 11 21 Sep 20:25:12 20:26:40 12° 59° (ENE) 20:28:09 145.825 FM, Beacon 2401.500 USB
HO-68 21 Sep 20:33:49 20:40:46 58° 67° (ENE) 20:47:45 435.675 MHz FM
UKube-1 21 Sep 20:41:59 20:45:22 23° 64° (ENE) 20:48:47 145.840 MHz, 145.915 MHz
STRAND 1 21 Sep 20:50:19 20:55:06 40° 293° (WNW) 20:59:51 ?
Sapphire 21 Sep 21:07:50 21:13:19 85° 58° (ENE) 21:18:45 437.095 MHz 1200 baud AX-25 AFSK
KITSAT 1 21 Sep 21:09:06 21:16:44 44° 317° (NW) 21:24:24 435.175 FM
SO-50 21 Sep 21:17:10 21:20:05 17° 110° (ESE) 21:23:03 436.795 FM
AO-40 21 Sep 21:31:47 02:46:19 35° 157° (SSE) 04:27:04 Beacon 2401.320
PCSat 21 Sep 21:34:45 21:40:05 57° 244° (WSW) 21:45:21 145.825 MHz
FUNcube-1 21 Sep 21:54:08 21:58:13 37° 69° (ENE) 22:02:25 145.950 - 145.970 MHz USB
Oscar 11 21 Sep 21:57:48 22:02:11 87° 256° (WSW) 22:06:35 145.825 FM, Beacon 2401.500 USB
UKube-1 21 Sep 22:17:20 22:21:22 38° 262° (W) 22:25:26 145.840 MHz, 145.915 MHz
HO-68 21 Sep 22:22:45 22:28:51 30° 266° (W) 22:35:00 435.675 MHz FM
UOSAT-12 21 Sep 22:44:02 22:45:23 11° 107° (ESE) 22:46:44 437.025 FM, 437.400 FM
Sapphire 21 Sep 22:53:00 22:55:59 15° 256° (WSW) 22:58:58 437.095 MHz 1200 baud AX-25 AFSK
SO-50 21 Sep 22:55:41 23:00:08 64° 309° (NW) 23:04:45 436.795 FM
KITSAT 1 21 Sep 23:09:05 23:14:35 19° 344° (NNW) 23:20:05 435.175 FM
FUNcube-1 21 Sep 23:31:06 23:34:43 24° 267° (W) 23:38:25 145.950 - 145.970 MHz USB
Saudisat 1A 21 Sep 23:40:41 23:43:11 15° 31° (NNE) 23:45:40 436.775 MHz
UOSAT-12 22 Sep 00:20:06 00:24:44 85° 124° (SE) 00:29:29 437.025 FM, 437.400 FM
SO-50 22 Sep 00:39:02 00:41:39 15° 331° (NNW) 00:44:19 436.795 FM
KITSAT 1 22 Sep 01:08:10 01:13:37 19° 15° (NNE) 01:19:03 435.175 FM
Oscar 10/S400 22 Sep 01:12:58 02:13:06 38° 220° (SW) 07:18:12 145.825 - 145.975 CW/USB, Beacon 145.810 USB
Saudisat 1A 22 Sep 01:19:10 01:23:35 68° 52° (NE) 01:27:59 436.775 MHz
ISS 22 Sep 01:38:45 01:41:10 19° 136° (SE) 01:43:36 145.800 FM
ITAMSAT 1 22 Sep 01:53:49 01:55:32 12° 87° (E) 01:57:14 435.822 SSB
Uribyol 2 22 Sep 01:56:42 01:59:12 13° 88° (E) 02:01:42 436.500 FM
UOSAT-12 22 Sep 02:02:04 02:05:31 20° 325° (NW) 02:09:00 437.025 FM, 437.400 FM
Oscar 19 22 Sep 02:02:55 02:07:34 33° 96° (E) 02:12:10 437.125 CW, 437.150 USB
RS-15 22 Sep 02:10:51 02:15:14 13° 95° (E) 02:19:34 29.354 - 29.394 USB, Beacon 29.352 USB
AO-27 22 Sep 02:27:29 02:31:44 25° 94° (E) 02:35:57 436.795 MHz FM
JAS-1B 22 Sep 02:29:02 02:34:01 30° 95° (E) 02:38:59 435.800 - 435.900 CW/SSB
AO-Echo 22 Sep 02:34:50 02:39:12 32° 96° (E) 02:43:41 ?
Oscar 16 22 Sep 02:41:52 02:47:05 75° 103° (ESE) 02:52:13 437.025 USB, Beacon 2401.1428
Saudisat 1A 22 Sep 03:00:03 03:02:39 15° 250° (WSW) 03:05:14 436.775 MHz
KITSAT 1 22 Sep 03:03:53 03:11:31 42° 43° (NE) 03:19:05 435.175 FM
ISS 22 Sep 03:14:15 03:17:34 72° 333° (NNW) 03:20:54 145.800 FM
ITAMSAT 1 22 Sep 03:30:31 03:35:47 86° 104° (ESE) 03:41:01 435.822 SSB
Gurwin Techsat 1B 22 Sep 03:33:52 03:39:00 48° 99° (E) 03:44:07 435.225 FM
Uribyol 2 22 Sep 03:34:05 03:39:20 84° 286° (WNW) 03:44:34 436.500 FM
Oscar 19 22 Sep 03:42:15 03:46:55 35° 294° (WNW) 03:51:32 437.125 CW, 437.150 USB
OPAL 22 Sep 04:05:27 04:10:15 40° 65° (ENE) 04:15:06 ?
SO-50 22 Sep 04:06:17 04:07:20 11° 21° (NNE) 04:08:23 436.795 FM
AO-27 22 Sep 04:06:28 04:11:27 47° 291° (WNW) 04:16:26 436.795 MHz FM
TMSAT-1 22 Sep 04:09:07 04:14:27 73° 103° (ESE) 04:19:44 436.925 FM
AO-Echo 22 Sep 04:13:39 04:17:57 33° 293° (WNW) 04:22:21 ?
RS-15 22 Sep 04:14:20 04:25:07 63° 116° (ESE) 04:35:47 29.354 - 29.394 USB, Beacon 29.352 USB
JAS-1B 22 Sep 04:19:35 04:24:54 39° 295° (WNW) 04:30:09 435.800 - 435.900 CW/SSB
Oscar 16 22 Sep 04:22:34 04:25:49 17° 302° (WNW) 04:29:04 437.025 USB, Beacon 2401.1428
AO-7 22 Sep 04:22:42 04:29:34 28° 94° (E) 04:36:23 29.400 - 29.500 MHz
ISS 22 Sep 04:51:42 04:54:39 28° 353° (N) 04:57:37 145.800 FM
KITSAT 1 22 Sep 04:59:22 05:07:13 57° 245° (WSW) 05:15:02 435.175 FM
ITAMSAT 1 22 Sep 05:11:39 05:14:34 15° 303° (WNW) 05:17:30 435.822 SSB
Gurwin Techsat 1B 22 Sep 05:14:22 05:18:42 26° 297° (WNW) 05:23:02 435.225 FM
Uribyol 2 22 Sep 05:15:31 05:18:01 14° 304° (NW) 05:20:31 436.500 FM
Uosat F 22 Sep 05:25:32 05:30:33 65° 102° (ESE) 05:35:33 435.120 FM
JAS-2 22 Sep 05:38:11 05:42:36 20° 91° (E) 05:47:21 435.800 - 435.900 CW/SSB, 435.910 FM
OPAL 22 Sep 05:44:39 05:49:12 30° 263° (W) 05:53:47 ?
SO-50 22 Sep 05:44:56 05:49:19 34° 44° (NE) 05:53:45 436.795 FM
TMSAT-1 22 Sep 05:50:17 05:53:48 18° 301° (WNW) 05:57:18 436.925 FM
AO-7 22 Sep 06:14:46 06:23:00 71° 293° (WNW) 06:31:13 29.400 - 29.500 MHz
Hamsat 22 Sep 06:25:05 06:28:55 32° 96° (E) 06:32:41 145.90 MHz
RS-15 22 Sep 06:27:25 06:37:54 48° 322° (NW) 06:48:27 29.354 - 29.394 USB, Beacon 29.352 USB
ISS 22 Sep 06:28:54 06:31:58 33° 13° (NNE) 06:35:01 145.800 FM
STRAND 1 22 Sep 06:29:20 06:34:15 51° 70° (ENE) 06:39:11 ?
KITSAT 1 22 Sep 06:59:58 07:00:51 10° 264° (W) 07:01:43 435.175 FM
Uosat F 22 Sep 07:05:26 07:08:51 19° 300° (WNW) 07:12:16 435.120 FM
UOSAT-12 22 Sep 07:08:12 07:12:05 24° 38° (NE) 07:15:55 437.025 FM, 437.400 FM
JAS-2 22 Sep 07:22:04 07:28:07 76° 287° (WNW) 07:34:58 435.800 - 435.900 CW/SSB, 435.910 FM
SO-50 22 Sep 07:25:28 07:29:57 39° 242° (WSW) 07:34:28 436.795 FM
SO-67 22 Sep 07:37:49 07:40:46 26° 95° (E) 07:43:43 435.3500 MHz FM
MaSat-1 22 Sep 07:43:04 07:47:38 37° 110° (ESE) 07:52:07 437.345 MHz
Hamsat 22 Sep 08:01:15 08:04:45 25° 293° (WNW) 08:08:13 145.90 MHz
ISS 22 Sep 08:05:34 08:08:53 71° 212° (SSW) 08:12:12 145.800 FM
AO-7 22 Sep 08:09:02 08:14:25 20° 315° (NW) 08:19:49 29.400 - 29.500 MHz
STRAND 1 22 Sep 08:09:51 08:13:44 22° 268° (W) 08:17:38 ?
RS-15 22 Sep 08:44:45 08:53:44 28° 355° (N) 09:02:52 29.354 - 29.394 USB, Beacon 29.352 USB
UOSAT-12 22 Sep 08:47:56 08:52:38 62° 238° (WSW) 08:57:14 437.025 FM, 437.400 FM
JAS-2 22 Sep 09:09:15 09:12:26 15° 304° (NW) 09:15:47 435.800 - 435.900 CW/SSB, 435.910 FM
SO-67 22 Sep 09:11:04 09:13:40 20° 292° (WNW) 09:16:16 435.3500 MHz FM
MaSat-1 22 Sep 09:19:50 09:24:23 34° 307° (NW) 09:28:46 437.345 MHz
ISS 22 Sep 09:44:12 09:45:03 11° 229° (SW) 09:45:54 145.800 FM
Oscar 11 22 Sep 09:44:42 09:47:11 15° 90° (E) 09:49:40 145.825 FM, Beacon 2401.500 USB
HO-68 22 Sep 09:46:30 09:53:27 49° 100° (E) 10:00:20 435.675 MHz FM
UKube-1 22 Sep 10:03:18 10:07:08 29° 96° (E) 10:10:57 145.840 MHz, 145.915 MHz
PCSat 22 Sep 10:38:37 10:41:01 13° 103° (ESE) 10:43:26 145.825 MHz
RS-15 22 Sep 11:00:05 11:10:10 38° 29° (NNE) 11:20:31 29.354 - 29.394 USB, Beacon 29.352 USB
FUNcube-1 22 Sep 11:16:59 11:21:35 59° 100° (E) 11:26:04 145.950 - 145.970 MHz USB
Oscar 11 22 Sep 11:19:28 11:23:45 57° 287° (WNW) 11:27:59 145.825 FM, Beacon 2401.500 USB
